IISEREFA2 Weather Reports


time (UTC)temp
C
wind
direction
speed
KPH
gust
KPH
rain 1hr
cm
rain 24hr
cm
rain mn
cm
humidity
%
barometer
mb
20260505124536 16 165 6.4 14.5 0.00 4.11 2.64 81 1010.0
20260505123052 15 0 4.8 16.1 0.00 4.11 2.64 84 1010.1
20260505121534 15 165 6.4 17.7 0.00 4.11 2.64 82 1010.2
20260505120032 15 192 6.4 12.9 0.00 4.11 2.64 83 1010.2
20260505114533 16 211 4.8 11.3 0.00 4.32 2.64 82 1010.3
20260505113037 16 174 3.2 16.1 0.00 4.32 2.64 84 1010.3
20260505111550 15 174 3.2 12.9 0.00 4.32 2.64 86 1010.3
20260505101535 13 175 0.0 12.9 0.00 4.62 2.64 95 1010.6
20260505100034 13 175 0.0 4.8 0.00 4.62 2.64 97 1010.7
20260505094530 13 0 1.6 6.4 0.03 4.80 2.64 97 1010.8
20260505093031 12 175 1.6 4.8 0.08 4.80 2.64 97 1010.7
20260505091534 12 0 0.0 6.4 0.18 4.80 2.64 97 1010.6
20260505090037 12 175 0.0 3.2 0.28 4.80 2.64 97 1010.4
20260505084531 11 0 0.0 4.8 0.30 4.80 2.62 97 1010.4
20260505083040 11 0 0.0 4.8 0.33 4.75 2.54 97 1010.2
20260505081537 11 0 0.0 1.6 0.36 4.65 2.44 97 1010.2
20260505080036 11 0 0.0 3.2 0.36 4.55 2.34 97 1010.2
20260505074533 11 0 0.0 1.6 0.30 4.47 2.26 97 1010.2
20260505073032 11 0 0.0 3.2 0.36 4.39 2.18 97 1010.2
20260505071537 10 0 0.0 3.2 0.33 4.27 2.06 97 1010.1
20260505070039 10 175 0.0 4.8 0.36 4.19 1.98 97 1010.0
20260505064550 10 0 0.0 3.2 0.41 4.11 1.93 97 1010.1
20260505063031 10 0 0.0 1.6 0.41 3.99 1.78 97 1009.9
20260505061538 10 0 0.0 1.6 0.38 3.94 1.73 97 1009.9
20260505060032 10 0 0.0 3.2 0.33 3.78 1.57 97 1010.0
20260505054530 10 0 0.0 0.0 0.33 3.73 1.50 97 1009.8
20260505053030 10 0 0.0 0.0 0.20 3.58 1.37 97 1009.7
20260505051532 10 0 0.0 0.0 0.18 3.56 1.32 97 1009.9
20260505041534 10 0 0.0 0.0 0.05 3.38 1.14 97 1009.7
20260505040031 10 0 0.0 0.0 0.03 3.38 1.12 97 1009.9
20260505034536 10 0 0.0 1.6 0.03 3.35 1.12 97 1010.0
20260505033035 10 0 0.0 6.4 0.05 3.35 1.12 97 1010.0
20260505031531 10 177 0.0 8.0 0.10 3.33 1.09 97 1010.1
20260505030030 10 0 0.0 4.8 0.18 3.33 1.09 97 1010.1
20260505024541 10 180 0.0 3.2 0.20 3.30 1.07 97 1010.1
20260505023030 10 0 0.0 4.8 0.28 3.28 1.04 97 1010.2
20260505021537 10 0 0.0 0.0 0.28 3.20 0.97 97 1010.7
20260505020032 10 0 0.0 1.6 0.25 3.15 0.91 97 1010.7
20260505014537 10 0 0.0 3.2 0.25 3.07 0.84 97 1010.8
20260505013032 10 0 0.0 0.0 0.23 3.00 0.76 97 1011.0
20260505011534 10 0 0.0 0.0 0.18 2.90 0.66 96 1010.9
20260505010031 10 0 0.0 1.6 0.18 2.90 0.64 97 1010.7
20260505004531 11 0 0.0 4.8 0.13 2.82 0.56 97 1011.0
20260505003032 11 0 0.0 3.2 0.10 2.74 0.51 97 1011.2
20260505001540 10 0 0.0 3.2 0.18 2.69 0.46 96 1011.3
20260505000039 11 0 0.0 1.6 0.28 2.69 0.46 97 1011.2
20260504234531 11 0 0.0 6.4 0.30 2.67 0.43 97 1011.2
20260504233035 11 0 0.0 1.6 0.30 2.62 0.38 97 1011.7
20260504231540 11 0 0.0 1.6 0.23 2.49 0.25 96 1012.1
20260504230032 11 0 0.0 3.2 0.18 2.41 0.18 96 1012.0
20260504224537 11 0 0.0 1.6 0.18 2.34 0.10 96 1012.2
20260504223030 11 0 0.0 0.0 0.18 2.31 0.08 96 1012.3
20260504221533 11 0 0.0 0.0 0.18 2.24 0.00 96 1012.3
20260504220035 11 0 0.0 0.0 0.18 2.24 0.00 96 1012.4
20260504214531 11 0 0.0 3.2 0.13 2.16 2.16 96 1012.8
20260504213030 11 0 0.0 0.0 0.13 2.11 2.11 96 1012.9
20260504211531 11 0 0.0 0.0 0.13 2.06 2.06 96 1012.7
20260504210050 11 0 0.0 0.0 0.15 2.03 2.03 96 1012.6
20260504204534 11 0 0.0 1.6 0.18 2.03 2.03 96 1012.5
20260504203035 11 0 0.0 1.6 0.10 1.96 1.96 96 1012.8
20260504201531 11 0 0.0 0.0 0.08 1.93 1.93 96 1012.7
20260504200032 11 0 0.0 4.8 0.03 1.88 1.88 96 1012.8
20260504194542 11 0 0.0 4.8 0.03 1.85 1.85 96 1012.7
20260504193030 11 0 0.0 1.6 0.08 1.85 1.85 96 1012.5
20260504191541 11 0 0.0 4.8 0.10 1.85 1.85 96 1012.7
20260504190040 11 181 0.0 3.2 0.08 1.83 1.83 95 1012.7
20260504184537 11 0 0.0 1.6 0.08 1.80 1.80 95 1012.9
20260504183031 11 0 0.0 1.6 0.00 1.75 1.75 96 1013.0
20260504181530 11 0 0.0 0.0 0.00 1.73 1.73 95 1013.2
20260504180033 11 0 0.0 0.0 0.00 1.73 1.73 95 1013.2
20260504174530 11 0 0.0 0.0 0.03 1.73 1.73 95 1013.5
20260504173035 11 0 0.0 1.6 0.05 1.73 1.73 95 1013.5
20260504171532 11 0 0.0 1.6 0.08 1.73 1.73 95 1013.6